User: anonymous   Login
Location: Caltech
(34.1382°N, 118.1253°W)
Time: 19:47:59
(UTC-08:00)
Language:

Hamsat - Orbit

View from above orbital plane
View from above orbital plane
View from above satellite
View from above satellite

Ground track
Ground track

The orbit data is extracted from the following two-line orbital elements,

1 28650U 05017B   15023.55121543  .00001395  00000-0  16208-3 0  9630
2 28650 097.5681 022.7092 0025599 147.6000 212.6795 14.86644992525950
Epoch (UTC): 23 January 2015 13:13:45
Eccentricity: 0.0025599
inclination: 97.5681°
perigee height: 590 km
apogee height: 626 km
right ascension of ascending node: 22.7092°
argument of perigee: 147.6000°
revolutions per day: 14.86644992
mean anomaly at epoch: 212.6795°
orbit number at epoch: 52595

The dashed part of the orbit path shows where the satellite is in the earth's shadow,  

DLR